Rexburg, ID

12:41 PM MDT on August 23, 2017 (GMT -0600)
Rexburg-Madison County

Weather History for KRXE - January, 2014

Change the Weather History Date:

Friday, January 31, 2014

  Actual Average Record
Temperature  
Mean Temperature 21 °F 20 °F  
Max Temperature 28 °F 29 °F 54 °F (2003)
Min Temperature 14 °F 10 °F -2 °F (2000)
Degree Days  
Heating Degree Days 44 45  
Month to date heating degree days 1391 1395  
Since 1 July heating degree days 4730 4777  
Cooling Degree Days 0 0  
Month to date cooling degree days 0 0  
Year to date cooling degree days 0 0  
Moisture  
Dew Point 19 °F    
Average Humidity 91    
Maximum Humidity 100    
Minimum Humidity 81    
Precipitation  
Precipitation 0.01 in 0.02 in 0.05 in (2008)
Month to date precipitation 0.86 0.74  
Year to date precipitation 0.86 0.74  
Sea Level Pressure  
Sea Level Pressure 29.86 in    
Wind  
Wind Speed 6 mph (SW)    
Max Wind Speed 12 mph    
Max Gust Speed 14 mph    
Visibility 7 miles    
Events Fog , Snow    
T = Trace of Precipitation, MM = Missing Value Source: NWS Daily Summary

Daily Weather History Graph

Daily Weather History Graph

Search for Another Location

Airport or City:

Trip Planner

Search our weather history database for the weather conditions in past years. The results will help you decide how hot, cold, wet, or windy it might be!

Date:

Astronomy

Jan. 31, 2014 Rise Set
Actual Time 7:45 AM MST 5:36 PM MST
Civil Twilight 7:14 AM MST 6:07 PM MST
Nautical Twilight 6:40 AM MST 6:41 PM MST
Astronomical Twilight 6:06 AM MST 7:15 PM MST
Moon 7:54 AM MST (1/31) 7:09 PM MST (1/31)
Length of Visible Light 10h 52m
Length of Day
9h 51m
New Moon, 1% of the Moon is Illuminated
Jan 31
New Moon
Feb 6
First Quarter
Feb 14
Full
Feb 22
Last Quarter
Mar 1
New

Hourly Weather History & Observations

Time (MST) Temp. Windchill Dew Point Humidity Pressure Visibility Wind Dir Wind Speed Gust Speed Precip Events Conditions
12:53 AM 27.0 °F 18.0 °F 24.1 °F 89% 29.83 in 10.0 mi SW 9.2 mph - N/A   Overcast
1:18 AM 27.0 °F 19.5 °F 24.1 °F 89% 29.74 in 10.0 mi SW 6.9 mph - N/A   Overcast
1:43 AM 26.1 °F 18.4 °F 24.1 °F 92% 29.74 in 9.0 mi WSW 6.9 mph - 0.00 in Snow Light Snow
1:53 AM 26.1 °F 18.4 °F 24.1 °F 92% 29.83 in 5.0 mi WSW 6.9 mph - 0.00 in Snow Light Snow
2:03 AM 26.1 °F 16.8 °F 24.1 °F 92% 29.75 in 2.0 mi SW 9.2 mph - 0.00 in Snow Light Snow
2:14 AM 26.1 °F 16.8 °F 24.1 °F 92% 29.74 in 3.0 mi SW 9.2 mph - 0.01 in Snow Light Snow
2:53 AM 26.1 °F 17.6 °F 24.1 °F 92% 29.84 in 5.0 mi SSW 8.1 mph - 0.01 in Snow Light Snow
3:53 AM 25.0 °F 17.1 °F 23.0 °F 92% 29.84 in 10.0 mi SW 6.9 mph - 0.00 in   Overcast
4:20 AM 24.1 °F 16.0 °F 21.9 °F 91% 29.75 in 10.0 mi SSW 6.9 mph - 0.00 in   Overcast
4:53 AM 23.0 °F 15.8 °F 21.0 °F 92% 29.85 in 10.0 mi SSW 5.8 mph - 0.00 in   Mostly Cloudy
5:45 AM 19.0 °F - 17.1 °F 92% 29.76 in 9.0 mi Calm Calm - N/A   Mostly Cloudy
5:53 AM 19.0 °F - 17.1 °F 92% 29.88 in 9.0 mi Calm Calm - N/A   Mostly Cloudy
6:08 AM 19.0 °F 12.3 °F 17.1 °F 92% 29.77 in 2.5 mi SSW 4.6 mph - N/A   Mostly Cloudy
6:16 AM 19.0 °F 12.3 °F 18.0 °F 96% 29.77 in 10.0 mi SW 4.6 mph - N/A   Overcast
6:25 AM 17.1 °F 11.7 °F 16.0 °F 96% 29.77 in 10.0 mi SW 3.5 mph - N/A   Overcast
6:53 AM 16.0 °F 7.4 °F 16.0 °F 100% 29.89 in 10.0 mi NW 5.8 mph - N/A   Overcast
7:19 AM 15.1 °F 9.4 °F 14.0 °F 95% 29.78 in 1.8 mi West 3.5 mph - N/A   Overcast
7:29 AM 16.0 °F 8.8 °F 15.1 °F 96% 29.78 in 0.5 mi West 4.6 mph - N/A Fog Light Freezing Fog
7:41 AM 16.0 °F 8.8 °F 15.1 °F 96% 29.79 in 1.2 mi West 4.6 mph - N/A   Overcast
7:53 AM 15.1 °F 7.7 °F 15.1 °F 100% 29.91 in 0.5 mi SW 4.6 mph - N/A Fog Light Freezing Fog
8:00 AM 16.0 °F 10.4 °F 15.1 °F 96% 29.79 in 0.2 mi SSW 3.5 mph - N/A Fog Light Freezing Fog
8:53 AM 16.0 °F - 16.0 °F 100% 29.92 in 0.2 mi Calm Calm - N/A Fog Light Freezing Fog
9:53 AM 19.0 °F - 18.0 °F 96% 29.94 in 0.2 mi Calm Calm - N/A Fog Light Freezing Fog
10:53 AM 21.9 °F - 21.9 °F 100% 29.94 in 0.5 mi Calm Calm - N/A Fog Light Freezing Fog
11:31 AM 23.0 °F - 21.9 °F 96% 29.83 in 1.5 mi Calm Calm - N/A   Overcast
11:41 AM 21.9 °F - 21.9 °F 100% 29.83 in 3.0 mi Calm Calm - N/A   Overcast
11:53 AM 23.0 °F - 21.9 °F 96% 29.92 in 5.0 mi Calm Calm - N/A   Overcast
12:25 PM 23.0 °F 17.0 °F 21.9 °F 96% 29.82 in 10.0 mi WSW 4.6 mph - N/A   Overcast
12:53 PM 23.0 °F 15.8 °F 21.9 °F 96% 29.91 in 10.0 mi SSW 5.8 mph - N/A   Overcast
1:53 PM 23.0 °F 15.8 °F 21.0 °F 92% 29.89 in 10.0 mi SSW 5.8 mph - N/A   Overcast
2:53 PM 24.1 °F 15.2 °F 21.0 °F 88% 29.89 in 10.0 mi SSW 8.1 mph - N/A   Clear
3:53 PM 25.0 °F 15.5 °F 21.0 °F 85% 29.90 in 10.0 mi SSW 9.2 mph - N/A   Clear
4:53 PM 24.1 °F 17.0 °F 19.0 °F 81% 29.92 in 10.0 mi SSW 5.8 mph - N/A   Clear
5:53 PM 21.0 °F 11.4 °F 18.0 °F 88% 29.95 in 10.0 mi South 8.1 mph - N/A   Partly Cloudy
6:53 PM 19.0 °F 10.0 °F 16.0 °F 88% 29.98 in 10.0 mi South 6.9 mph - N/A   Clear
7:53 PM 19.0 °F 10.0 °F 16.0 °F 88% 30.00 in 10.0 mi South 6.9 mph - N/A   Clear
8:53 PM 19.9 °F 9.3 °F 16.0 °F 85% 29.99 in 10.0 mi South 9.2 mph - N/A   Overcast
9:53 PM 17.1 °F 7.6 °F 14.0 °F 88% 30.00 in 10.0 mi West 6.9 mph - N/A   Overcast
10:53 PM 17.1 °F 5.0 °F 15.1 °F 92% 29.97 in 10.0 mi SSW 10.4 mph - N/A   Overcast
11:53 PM 19.0 °F 9.0 °F 15.1 °F 85% 29.96 in 10.0 mi SSW 8.1 mph - N/A   Mostly Cloudy